Newport, RI

11:35 PM EST on November 21, 2017 (GMT -0500)
Newport State

Weather History for KUUU - August, 2013

Change the Weather History Date:

Saturday, August 10, 2013

  Actual Average Record
Temperature  
Mean Temperature 75 °F -  
Max Temperature 82 °F 79 °F 89 °F (1980)
Min Temperature 66 °F 65 °F 49 °F (1964)
Cooling Degree Days 10    
Growing Degree Days 25 (Base 50)    
Moisture  
Dew Point 64 °F    
Average Humidity 75    
Maximum Humidity 100    
Minimum Humidity 49    
Precipitation  
Precipitation 0.00 in - - ()
Sea Level Pressure  
Sea Level Pressure 29.90 in    
Wind  
Wind Speed 5 mph (West)    
Max Wind Speed 13 mph    
Max Gust Speed -    
Visibility 8 miles    
Events      
Averages and records for this station are not official NWS values.
T = Trace of Precipitation, MM = Missing Value Source: NWS Daily Summary

Daily Weather History Graph

Daily Weather History Graph

Search for Another Location

Airport or City:

Trip Planner

Search our weather history database for the weather conditions in past years. The results will help you decide how hot, cold, wet, or windy it might be!

Date:

Astronomy

Aug. 10, 2013 Rise Set
Actual Time 5:49 AM EDT 7:51 PM EDT
Civil Twilight 5:18 AM EDT 8:21 PM EDT
Nautical Twilight 4:41 AM EDT 8:58 PM EDT
Astronomical Twilight 4:01 AM EDT 9:38 PM EDT
Moon 9:36 AM EDT (8/10) 9:27 PM EDT (8/10)
Length of Visible Light 15h 02m
Length of Day
14h 02m
Waxing Crescent, 14% of the Moon is Illuminated
Aug 10
Waxing Crescent
Aug 14
First Quarter
Aug 20
Full
Aug 28
Last Quarter
Sep 5
New

Hourly Weather History & Observations

Time (EDT) Temp. Heat Index Dew Point Humidity Pressure Visibility Wind Dir Wind Speed Gust Speed Precip Events Conditions
12:53 AM 70.0 °F - 70.0 °F 100% 29.82 in 1.8 mi SSW 3.5 mph - N/A   Overcast
1:07 AM 71.6 °F - 69.8 °F 94% 29.82 in 2.0 mi SSW 3.5 mph - N/A   Overcast
1:18 AM 71.6 °F - 71.6 °F 100% 29.82 in 2.0 mi SSW 3.5 mph - N/A   Overcast
1:53 AM 71.1 °F - 71.1 °F 100% 29.82 in 2.5 mi SSW 3.5 mph - N/A   Overcast
2:19 AM 71.6 °F - 71.6 °F 100% 29.83 in 2.5 mi Calm Calm - N/A   Overcast
2:48 AM 71.6 °F - 69.8 °F 94% 29.83 in 2.0 mi Calm Calm - N/A   Mostly Cloudy
2:53 AM 71.1 °F - 70.0 °F 96% 29.83 in 2.0 mi Calm Calm - N/A   Scattered Clouds
3:30 AM 71.6 °F - 69.8 °F 94% 29.83 in 3.0 mi West 3.5 mph - N/A   Clear
3:53 AM 71.1 °F - 70.0 °F 96% 29.84 in 6.0 mi West 3.5 mph - N/A   Clear
4:53 AM 71.1 °F - 64.9 °F 81% 29.86 in 10.0 mi WNW 4.6 mph - N/A   Clear
5:53 AM 69.1 °F - 66.0 °F 90% 29.88 in 10.0 mi WNW 5.8 mph - N/A   Clear
6:53 AM 69.1 °F - 63.0 °F 81% 29.89 in 10.0 mi WNW 6.9 mph - N/A   Clear
7:53 AM 70.0 °F - 63.0 °F 78% 29.91 in 10.0 mi WNW 6.9 mph - N/A   Clear
8:53 AM 73.0 °F - 63.0 °F 71% 29.91 in 10.0 mi NW 9.2 mph - N/A   Clear
9:53 AM 75.0 °F - 62.1 °F 64% 29.91 in 10.0 mi NW 12.7 mph - N/A   Clear
10:53 AM 75.9 °F - 60.1 °F 58% 29.92 in 10.0 mi NW 11.5 mph - N/A   Clear
11:53 AM 77.0 °F - 60.1 °F 56% 29.92 in 10.0 mi Variable 6.9 mph - N/A   Clear
12:53 PM 80.1 °F 81.2 °F 62.1 °F 54% 29.91 in 10.0 mi WNW 6.9 mph - N/A   Clear
1:53 PM 81.0 °F 81.7 °F 61.0 °F 50% 29.91 in 10.0 mi WNW 8.1 mph - N/A   Clear
2:53 PM 81.0 °F 81.6 °F 60.1 °F 49% 29.91 in 10.0 mi WNW 10.4 mph - N/A   Clear
3:53 PM 78.1 °F - 66.0 °F 66% 29.91 in 10.0 mi Variable 6.9 mph - N/A   Scattered Clouds
4:53 PM 79.0 °F - 62.1 °F 56% 29.92 in 10.0 mi SSW 5.8 mph - N/A   Clear
5:53 PM 77.0 °F - 63.0 °F 62% 29.92 in 10.0 mi Variable 6.9 mph - N/A   Partly Cloudy
6:53 PM 73.9 °F - 63.0 °F 68% 29.94 in 10.0 mi SSW 4.6 mph - N/A   Scattered Clouds
7:53 PM 73.0 °F - 63.0 °F 71% 29.95 in 10.0 mi NW 4.6 mph - N/A   Mostly Cloudy
8:53 PM 70.0 °F - 59.0 °F 68% 29.98 in 10.0 mi Calm Calm - N/A   Clear
9:53 PM 70.0 °F - 57.9 °F 65% 30.00 in 10.0 mi NW 4.6 mph - N/A   Mostly Cloudy
10:53 PM 70.0 °F - 53.1 °F 55% 30.01 in 10.0 mi NW 9.2 mph - N/A   Clear
11:53 PM 66.9 °F - 51.1 °F 57% 30.02 in 10.0 mi NW 8.1 mph - N/A   Clear